Sawtelle Peak

Sawtelle summit stationLocated on Sawtelle Peak in the Centennials. Use the Sawtelle SNOdar or the nearest SNOTEL station for snow depth data: White Elephant. The data on this page is also available to view at dataGarrison.com.

 

Elevation
9885ft
Jump to table bottom
Date Time Temperature
deg F
RH, % Wind Speed Wind Gust Wind Direction Pressure Light
04/15/24 16:00 32.4 95 10 28 NW - 324 700.320 831,650
04/15/24 15:00 30.8 96 9 23 NW - 313 699.840 304,852
04/15/24 14:00 31.9 95 12 23 NW - 303 699.500 831,650
04/15/24 13:00 32.0 95 10 19 NW - 295 699.300 652,661
04/15/24 12:00 32.4 95 7 36 NW - 317 699.420 587,574
04/15/24 11:00 32.1 96 10 20 NW - 316 699.340 974,028
04/15/24 10:00 31.7 96 9 17 NW - 312 698.900 1,100,134
04/15/24 9:00 29.3 96 7 16 NW - 313 698.460 900,805
04/15/24 8:00 29.4 96 5 21 NW - 329 698.760 913,009
04/15/24 7:00 28.3 97 7 27 NW - 317 698.980 228,578
04/15/24 6:00 27.5 97 10 37 NW - 319 698.940 5,683
04/15/24 5:00 27.0 97 10 33 NW - 327 698.880 0
04/15/24 4:00 27.3 96 15 45 NW - 334 699.240 0
04/15/24 3:00 32.0 96 8 57 N - 351 699.820 0
04/15/24 2:00 29.0 81 6 43 E - 112 700.340 0
04/15/24 1:00 31.0 72 7 63 N - 17 700.700 0
04/14/24 24:00 32.5 67 9 54 SW - 222 701.320 0
04/14/24 23:00 34.8 52 12 22 W - 272 701.340 0
04/14/24 22:00 35.4 50 4 32 S - 173 701.540 0
04/14/24 21:00 34.9 51 24 37 W - 274 701.580 0
04/14/24 20:00 34.8 54 25 37 W - 274 701.140 41
04/14/24 19:00 37.5 53 17 25 W - 277 701.540 83,657
04/14/24 18:00 40.0 48 14 24 W - 277 702.060 270,274
04/14/24 17:00 41.3 45 12 20 W - 279 702.280 394,346
04/14/24 16:00 41.5 47 13 24 W - 282 702.500 575,370
04/14/24 15:00 41.8 47 12 22 W - 282 702.740 746,224
04/14/24 14:00 41.5 45 12 24 W - 264 703.020 888,602
04/14/24 13:00 41.1 43 14 25 W - 258 703.280 990,300
04/14/24 12:00 40.9 43 12 26 W - 256 703.280 1,059,455
04/14/24 11:00 40.4 42 10 42 SW - 226 703.620 1,100,134
04/14/24 10:00 39.5 42 7 46 S - 170 703.520 1,067,591
04/14/24 9:00 41.4 42 6 49 SE - 140 703.460 974,028
04/14/24 8:00 40.9 39 6 47 SE - 132 703.700 795,039
04/14/24 7:00 39.6 42 4 31 SE - 143 703.940 465,535
04/14/24 6:00 38.1 45 4 24 S - 185 703.600 7,129
04/14/24 5:00 37.6 46 6 16 SW - 209 703.600 0
04/14/24 4:00 37.7 45 8 21 SW - 220 703.600 0
04/14/24 3:00 36.6 49 13 23 SW - 223 703.600 0
04/14/24 2:00 37.4 50 8 20 SW - 225 703.600 0
04/14/24 1:00 37.9 49 14 21 SW - 226 704.200 0
04/13/24 24:00 37.6 51 15 23 SW - 233 704.480 0
04/13/24 23:00 38.6 50 18 27 SW - 247 704.640 0
04/13/24 22:00 38.7 51 14 24 SW - 227 704.680 0
04/13/24 21:00 39.3 55 12 24 SW - 219 705.060 0
04/13/24 20:00 39.2 58 9 23 SW - 208 704.780 58
04/13/24 19:00 39.6 60 10 17 SW - 236 704.700 66,877
04/13/24 18:00 42.4 49 16 25 W - 264 705.200 224,510
04/13/24 17:00 41.5 58 18 30 W - 261 705.240 410,618
04/13/24 16:00 42.3 54 20 31 W - 267 705.180 583,506
04/13/24 15:00 41.5 58 19 33 W - 270 705.360 750,291